TimeEST,TemperatureF,Dew PointF,Humidity,Sea Level PressureIn,VisibilityMPH,Wind Direction,Wind SpeedMPH,Gust SpeedMPH,PrecipitationIn,Events,Conditions,WindDirDegrees,DateUTC
12:11 AM,46.4,44.6,93,30.27,10.0,WNW,12.7,-,N/A,,Overcast,300,2012-11-13 05:11:00
12:53 AM,45.0,42.1,90,30.26,10.0,WNW,8.1,-,N/A,,Overcast,300,2012-11-13 05:53:00
1:53 AM,43.0,37.9,82,30.26,10.0,WNW,8.1,-,N/A,,Overcast,300,2012-11-13 06:53:00
2:53 AM,41.0,36.0,82,30.26,10.0,NW,11.5,-,N/A,,Overcast,310,2012-11-13 07:53:00
3:53 AM,39.0,35.1,86,30.26,10.0,NW,10.4,17.3,N/A,,Mostly Cloudy,320,2012-11-13 08:53:00
4:53 AM,37.0,34.0,89,30.27,10.0,NW,9.2,-,N/A,,Clear,310,2012-11-13 09:53:00
5:53 AM,36.0,32.0,86,30.28,10.0,NW,8.1,-,N/A,,Clear,310,2012-11-13 10:53:00
6:53 AM,35.1,30.9,85,30.30,10.0,NW,10.4,-,N/A,,Clear,310,2012-11-13 11:53:00
7:53 AM,36.0,30.9,82,30.33,10.0,NW,10.4,-,N/A,,Clear,310,2012-11-13 12:53:00
8:53 AM,39.0,30.9,73,30.34,10.0,NW,8.1,-,N/A,,Clear,320,2012-11-13 13:53:00
9:53 AM,43.0,30.9,62,30.34,10.0,NW,5.8,-,N/A,,Clear,310,2012-11-13 14:53:00
10:53 AM,48.0,30.9,52,30.34,10.0,NW,8.1,-,N/A,,Clear,310,2012-11-13 15:53:00
11:53 AM,51.1,32.0,48,30.32,10.0,NW,8.1,-,N/A,,Clear,320,2012-11-13 16:53:00
12:53 PM,55.0,32.0,42,30.29,10.0,NNW,9.2,-,N/A,,Clear,330,2012-11-13 17:53:00
1:53 PM,57.0,32.0,39,30.27,10.0,NW,9.2,-,N/A,,Clear,310,2012-11-13 18:53:00
2:53 PM,57.9,30.9,36,30.26,10.0,WNW,6.9,-,N/A,,Clear,300,2012-11-13 19:53:00
3:53 PM,57.9,30.9,36,30.26,10.0,NNW,5.8,-,N/A,,Clear,340,2012-11-13 20:53:00
4:53 PM,55.0,33.1,43,30.27,10.0,NW,10.4,-,N/A,,Clear,310,2012-11-13 21:53:00
5:53 PM,50.0,32.0,50,30.29,10.0,WNW,5.8,-,N/A,,Clear,300,2012-11-13 22:53:00
6:53 PM,46.9,30.9,54,30.31,10.0,NW,3.5,-,N/A,,Clear,310,2012-11-13 23:53:00
7:53 PM,45.0,30.9,58,30.33,10.0,NW,3.5,-,N/A,,Clear,320,2012-11-14 00:53:00
8:53 PM,43.0,30.9,62,30.34,10.0,Calm,Calm,-,N/A,,Clear,0,2012-11-14 01:53:00
9:53 PM,42.1,32.0,67,30.34,10.0,Calm,Calm,-,N/A,,Clear,0,2012-11-14 02:53:00
10:53 PM,39.9,33.1,77,30.34,10.0,Calm,Calm,-,N/A,,Clear,0,2012-11-14 03:53:00
11:53 PM,39.9,34.0,79,30.33,10.0,Calm,Calm,-,N/A,,Clear,0,2012-11-14 04:53:00